DW9439 Weather Reports


Display with metric or nautical units.
time (UTC)temp
F
wind
direction
speed
MPH
gust
MPH
rain 1hr
in
rain 24hr
in
rain mn
in
humidity
%
barometer
mb
20260906201115 92 155 15.0 26.0 0.00 0.00 0.00 42 1015.4
20260906200809 92 162 15.0 31.0 0.00 0.00 0.00 43 1015.5
20260906200512 92 169 16.0 31.0 0.00 0.00 0.00 43 1015.5
20260906200214 92 188 16.0 31.0 0.00 0.00 0.00 43 1015.5
20260906195915 92 167 17.0 31.0 0.00 0.00 0.00 43 1015.6
20260906195612 92 166 16.0 31.0 0.00 0.00 0.00 44 1015.6
20260906195314 92 165 14.0 31.0 0.00 0.00 0.00 43 1015.5
20260906195010 92 173 14.0 31.0 0.00 0.00 0.00 44 1015.8
20260906194700 91 169 13.0 24.0 0.00 0.00 0.00 46 1015.8
20260906194402 91 171 13.0 24.0 0.00 0.00 0.00 46 1015.7
20260906194106 91 159 14.0 24.0 0.00 0.00 0.00 46 1015.8
20260906193754 90 175 14.0 25.0 0.00 0.00 0.00 46 1015.8
20260906193042 90 184 15.0 25.0 0.00 0.00 0.00 48 1016.0
20260906192730 89 186 16.0 28.0 0.00 0.00 0.00 48 1016.1
20260906192426 89 171 14.0 28.0 0.00 0.00 0.00 48 1016.0
20260906192128 90 163 13.0 28.0 0.00 0.00 0.00 47 1016.1
20260906191822 90 187 12.0 28.0 0.00 0.00 0.00 46 1016.0
20260906191511 90 171 12.0 28.0 0.00 0.00 0.00 47 1016.1
20260906191202 89 147 14.0 28.0 0.00 0.00 0.00 47 1016.2
20260906190850 89 169 14.0 28.0 0.00 0.00 0.00 47 1016.1
20260906190542 89 171 15.0 28.0 0.00 0.00 0.00 48 1016.2
20260906185813 89 162 14.0 28.0 0.00 0.00 0.00 47 1016.3
20260906185515 89 167 14.0 28.0 0.00 0.00 0.00 48 1016.3
20260906185211 89 159 15.0 28.0 0.00 0.00 0.00 48 1016.4
20260906184911 89 159 14.0 28.0 0.00 0.00 0.00 49 1016.4
20260906184601 89 163 13.0 27.0 0.00 0.00 0.00 48 1016.4
20260906184259 89 192 11.0 24.0 0.00 0.00 0.00 49 1016.3
20260906183954 89 164 11.0 20.0 0.00 0.00 0.00 49 1016.2
20260906182755 88 162 14.0 25.0 0.00 0.00 0.00 52 1016.5
20260906182457 88 163 13.0 25.0 0.00 0.00 0.00 50 1016.7
20260906182150 88 178 12.0 25.0 0.00 0.00 0.00 51 1016.5
20260906181850 88 176 11.0 22.0 0.00 0.00 0.00 52 1016.6
20260906181541 87 166 12.0 25.0 0.00 0.00 0.00 52 1016.7
20260906180828 87 163 14.0 25.0 0.00 0.00 0.00 51 1016.9
20260906180515 87 171 13.0 25.0 0.00 0.00 0.00 51 1016.9
20260906180218 87 154 12.0 25.0 0.00 0.00 0.00 53 1016.9
20260906175921 87 170 12.0 25.0 0.00 0.00 0.00 52 1017.0
20260906175622 87 168 11.0 23.0 0.00 0.00 0.00 52 1017.0
20260906175321 87 165 11.0 23.0 0.00 0.00 0.00 53 1017.1
20260906175014 87 170 12.0 23.0 0.00 0.00 0.00 53 1017.1
20260906174717 87 177 11.0 23.0 0.00 0.00 0.00 53 1017.3
20260906174420 86 158 11.0 22.0 0.00 0.00 0.00 53 1017.3
20260906174110 86 185 11.0 20.0 0.00 0.00 0.00 53 1017.4
20260906173354 86 159 9.0 19.0 0.00 0.00 0.00 54 1017.5
20260906173042 86 154 9.0 18.0 0.00 0.00 0.00 55 1017.5
20260906172317 85 167 11.0 23.0 0.00 0.00 0.00 56 1017.6
20260906172012 85 165 11.0 23.0 0.00 0.00 0.00 56 1017.6
20260906171659 85 165 12.0 23.0 0.00 0.00 0.00 56 1017.8
20260906171345 84 160 12.0 23.0 0.00 0.00 0.00 57 1017.7
20260906170617 84 178 11.0 20.0 0.00 0.00 0.00 56 1017.9
20260906170305 84 169 11.0 20.0 0.00 0.00 0.00 56 1017.9
20260906170005 85 173 9.0 19.0 0.00 0.00 0.00 56 1017.8
20260906164830 84 157 8.0 18.0 0.00 0.00 0.00 58 1017.8
20260906164526 84 166 8.0 18.0 0.00 0.00 0.00 58 1017.8
20260906164220 84 168 8.0 18.0 0.00 0.00 0.00 58 1018.0
20260906163909 83 166 8.0 18.0 0.00 0.00 0.00 59 1017.9
20260906163559 83 163 8.0 18.0 0.00 0.00 0.00 59 1018.0
20260906163259 83 178 7.0 15.0 0.00 0.00 0.00 59 1018.0
20260906162948 83 165 5.0 15.0 0.00 0.00 0.00 61 1018.0
20260906162646 82 167 6.0 15.0 0.00 0.00 0.00 62 1018.1
20260906162348 82 163 7.0 15.0 0.00 0.00 0.00 62 1018.1
20260906162038 81 165 8.0 15.0 0.00 0.00 0.00 63 1018.2
20260906161733 81 161 8.0 15.0 0.00 0.00 0.00 63 1018.3
20260906161424 81 163 8.0 15.0 0.00 0.00 0.00 63 1018.2
20260906161127 81 165 8.0 13.0 0.00 0.00 0.00 63 1018.2
20260906160826 81 166 7.0 13.0 0.00 0.00 0.00 63 1018.3
20260906160526 82 167 6.0 13.0 0.00 0.00 0.00 62 1018.2
20260906160216 82 163 5.0 13.0 0.00 0.00 0.00 62 1018.2
20260906155916 82 154 4.0 12.0 0.00 0.00 0.00 62 1018.1
20260906155605 82 145 4.0 10.0 0.00 0.00 0.00 63 1018.2
20260906155251 82 142 4.0 10.0 0.00 0.00 0.00 63 1018.3
20260906154945 81 132 3.0 10.0 0.00 0.00 0.00 63 1018.2
20260906154214 81 128 3.0 10.0 0.00 0.00 0.00 63 1018.2
20260906153905 81 128 4.0 10.0 0.00 0.00 0.00 64 1018.1
20260906153600 80 115 3.0 8.0 0.00 0.00 0.00 65 1018.1
20260906153303 80 115 3.0 8.0 0.00 0.00 0.00 66 1018.1
20260906152951 80 116 3.0 8.0 0.00 0.00 0.00 66 1018.1
20260906152649 80 116 2.0 7.0 0.00 0.00 0.00 66 1018.1
20260906152340 79 117 2.0 6.0 0.00 0.00 0.00 66 1018.1
20260906152042 79 117 2.0 6.0 0.00 0.00 0.00 66 1018.1
20260906151741 79 117 2.0 6.0 0.00 0.00 0.00 67 1018.1
20260906151438 79 117 2.0 9.0 0.00 0.00 0.00 68 1018.0
20260906151128 78 117 2.0 9.0 0.00 0.00 0.00 68 1017.9
20260906150822 78 117 3.0 9.0 0.00 0.00 0.00 69 1017.9
20260906150515 77 117 4.0 9.0 0.00 0.00 0.00 69 1017.8
20260906145316 77 123 2.0 7.0 0.00 0.00 0.00 72 1017.7
20260906145019 76 123 2.0 7.0 0.00 0.00 0.00 73 1017.8
20260906144714 75 123 2.0 7.0 0.00 0.00 0.00 74 1017.7
20260906143937 75 123 4.0 8.0 0.00 0.00 0.00 74 1017.7
20260906143623 74 123 4.0 8.0 0.00 0.00 0.00 74 1017.9
20260906143312 74 123 4.0 9.0 0.00 0.00 0.00 74 1017.9
20260906143008 74 125 4.0 9.0 0.00 0.00 0.00 75 1018.0
20260906142700 74 126 4.0 9.0 0.00 0.00 0.00 75 1018.1
20260906142358 74 127 5.0 9.0 0.00 0.00 0.00 75 1018.1
20260906142048 74 127 5.0 9.0 0.00 0.00 0.00 75 1018.1
20260906141748 74 128 5.0 9.0 0.00 0.00 0.00 76 1018.2
20260906141447 74 133 5.0 8.0 0.00 0.00 0.00 76 1018.2
20260906141138 74 146 5.0 8.0 0.00 0.00 0.00 76 1018.2
20260906135948 74 155 4.0 8.0 0.00 0.00 0.00 76 1018.1
20260906135645 74 157 4.0 8.0 0.00 0.00 0.00 77 1018.1
20260906135338 74 164 4.0 7.0 0.00 0.00 0.00 77 1018.1
20260906135040 74 165 3.0 6.0 0.00 0.00 0.00 77 1018.1
20260906134313 73 166 4.0 6.0 0.00 0.00 0.00 79 1017.9
20260906133556 72 167 4.0 7.0 0.00 0.00 0.00 80 1018.0
20260906132357 71 170 3.0 7.0 0.00 0.00 0.00 83 1017.9
20260906132045 70 170 4.0 7.0 0.00 0.00 0.00 83 1017.7
20260906131747 70 170 4.0 7.0 0.00 0.00 0.00 83 1017.8
20260906131446 70 170 4.0 7.0 0.00 0.00 0.00 83 1017.8
20260906131143 70 171 4.0 6.0 0.00 0.00 0.00 83 1017.8
20260906130840 69 173 3.0 6.0 0.00 0.00 0.00 83 1017.7
20260906130538 69 173 2.0 6.0 0.00 0.00 0.00 83 1017.6
20260906130227 69 173 0.0 4.0 0.00 0.00 0.00 83 1017.5
20260906125924 69 173 0.0 4.0 0.00 0.00 0.00 83 1017.5
20260906125627 69 173 0.0 0.0 0.00 0.00 0.00 83 1017.4
20260906125314 69 173 0.0 0.0 0.00 0.00 0.00 83 1017.2
20260906125000 69 173 0.0 0.0 0.00 0.00 0.00 83 1017.2
20260906124648 70 173 0.0 0.0 0.00 0.00 0.00 83 1017.3
20260906124340 70 173 0.0 0.0 0.00 0.00 0.00 82 1017.3
20260906124035 70 173 0.0 0.0 0.00 0.00 0.00 82 1017.2
20260906123322 70 173 0.0 0.0 0.00 0.00 0.00 83 1016.9
20260906122200 70 173 0.0 0.0 0.00 0.00 0.00 82 1016.8
20260906121851 70 173 0.0 0.0 0.00 0.00 0.00 82 1016.9
20260906121552 70 173 0.0 0.0 0.00 0.00 0.00 82 1016.9
20260906121246 70 173 0.0 0.0 0.00 0.00 0.00 82 1016.9
20260906120938 70 173 0.0 0.0 0.00 0.00 0.00 82 1016.9
20260906120630 70 173 0.0 0.0 0.00 0.00 0.00 82 1016.9
20260906120327 70 173 0.0 0.0 0.00 0.00 0.00 81 1016.8
20260906120030 70 173 0.0 0.0 0.00 0.00 0.00 81 1016.8
20260906115257 70 173 0.0 0.0 0.00 0.00 0.00 81 1016.7
20260906114536 70 173 0.0 0.0 0.00 0.00 0.00 81 1016.7
20260906114232 70 173 0.0 0.0 0.00 0.00 0.00 81 1016.7
20260906113920 70 173 0.0 0.0 0.00 0.00 0.00 80 1016.6
20260906113622 70 173 0.0 0.0 0.00 0.00 0.00 80 1016.6
20260906113318 70 173 0.0 0.0 0.00 0.00 0.00 80 1016.4
20260906113019 70 173 0.0 0.0 0.00 0.00 0.00 80 1016.4
20260906112721 70 173 0.0 0.0 0.00 0.00 0.00 80 1016.3
20260906112412 70 173 0.0 0.0 0.00 0.00 0.00 79 1016.3
20260906112112 70 173 0.0 0.0 0.00 0.00 0.00 79 1016.3
20260906111808 70 173 0.0 0.0 0.00 0.00 0.00 79 1016.3
20260906111028 71 173 0.0 0.0 0.00 0.00 0.00 78 1016.1
20260906110721 71 173 0.0 0.0 0.00 0.00 0.00 78 1016.1
20260906110417 71 173 0.0 0.0 0.00 0.00 0.00 77 1016.2
20260906110107 71 173 0.0 0.0 0.00 0.00 0.00 77 1016.1
20260906105802 71 173 0.0 0.0 0.00 0.00 0.00 77 1016.1
20260906105452 71 173 0.0 0.0 0.00 0.00 0.00 76 1016.0
20260906105151 71 173 0.0 0.0 0.00 0.00 0.00 76 1016.1
20260906104842 71 173 0.0 0.0 0.00 0.00 0.00 76 1016.1
20260906104129 71 173 0.0 0.0 0.00 0.00 0.00 75 1016.1
20260906103822 71 173 0.0 0.0 0.00 0.00 0.00 75 1016.2
20260906103524 71 173 0.0 0.0 0.00 0.00 0.00 75 1016.2
20260906103227 71 173 0.0 0.0 0.00 0.00 0.00 75 1016.3
20260906102926 71 173 0.0 0.0 0.00 0.00 0.00 75 1016.3
20260906101751 71 173 0.0 0.0 0.00 0.00 0.00 74 1016.3
20260906101454 71 173 0.0 0.0 0.00 0.00 0.00 75 1016.2
20260906101142 71 173 0.0 0.0 0.00 0.00 0.00 74 1016.2
20260906100831 71 173 0.0 0.0 0.00 0.00 0.00 74 1016.3
20260906100534 71 173 0.0 0.0 0.00 0.00 0.00 74 1016.3
20260906100228 71 173 0.0 1.0 0.00 0.00 0.00 74 1016.4
20260906095930 71 173 0.0 3.0 0.00 0.00 0.00 74 1016.5
20260906095619 71 173 0.0 3.0 0.00 0.00 0.00 74 1016.4
20260906095309 71 173 1.0 3.0 0.00 0.00 0.00 74 1016.2
20260906094958 72 173 1.0 3.0 0.00 0.00 0.00 74 1016.1
20260906094646 72 173 0.0 3.0 0.00 0.00 0.00 74 1016.2
20260906094333 72 173 0.0 1.0 0.00 0.00 0.00 73 1016.0
20260906094021 72 173 0.0 1.0 0.00 0.00 0.00 72 1016.1
20260906093721 72 173 0.0 1.0 0.00 0.00 0.00 72 1016.0
20260906093417 72 173 0.0 1.0 0.00 0.00 0.00 72 1015.9
20260906092646 72 173 0.0 0.0 0.00 0.00 0.00 71 1015.7
20260906092345 72 173 0.0 0.0 0.00 0.00 0.00 71 1015.7
20260906092042 73 173 0.0 0.0 0.00 0.00 0.00 71 1015.7
20260906091734 73 173 0.0 0.0 0.00 0.00 0.00 71 1015.6
20260906091431 73 173 0.0 0.0 0.00 0.00 0.00 70 1015.6
20260906091128 73 173 0.0 0.0 0.00 0.00 0.00 70 1015.6
20260906090815 73 173 0.0 0.0 0.00 0.00 0.00 70 1015.6
20260906085615 73 173 0.0 0.0 0.00 0.00 0.00 70 1015.4
20260906085315 73 173 0.0 0.0 0.00 0.00 0.00 69 1015.5
20260906085011 73 173 1.0 0.0 0.00 0.00 0.00 70 1015.4
20260906084703 73 173 1.0 4.0 0.00 0.00 0.00 70 1015.4
20260906084357 73 173 1.0 4.0 0.00 0.00 0.00 69 1015.5
20260906084052 73 173 1.0 4.0 0.00 0.00 0.00 70 1015.5
20260906083741 73 173 1.0 4.0 0.00 0.00 0.00 69 1015.6
20260906083429 73 173 1.0 4.0 0.00 0.00 0.00 69 1015.5
20260906082702 73 173 2.0 5.0 0.00 0.00 0.00 68 1015.4
20260906082349 74 173 2.0 5.0 0.00 0.00 0.00 68 1015.4
20260906082049 74 173 3.0 7.0 0.00 0.00 0.00 68 1015.4
20260906081737 74 173 3.0 7.0 0.00 0.00 0.00 67 1015.5
20260906081433 74 173 3.0 7.0 0.00 0.00 0.00 68 1015.5
20260906080720 74 173 4.0 7.0 0.00 0.00 0.00 67 1015.4
20260906080408 74 173 5.0 7.0 0.00 0.00 0.00 68 1015.4
20260906075640 74 173 4.0 6.0 0.00 0.00 0.00 69 1015.5
20260906075341 74 173 4.0 6.0 0.00 0.00 0.00 69 1015.5
20260906074613 74 173 3.0 6.0 0.00 0.00 0.00 70 1015.7
20260906074302 74 173 3.0 6.0 0.00 0.00 0.00 70 1015.7
20260906074000 74 173 4.0 6.0 0.00 0.00 0.00 71 1015.6
20260906073659 74 173 4.0 6.0 0.00 0.00 0.00 71 1015.6
20260906073352 74 173 4.0 6.0 0.00 0.00 0.00 71 1015.5
20260906073054 74 173 3.0 6.0 0.00 0.00 0.00 71 1015.5
20260906072757 74 173 3.0 6.0 0.00 0.00 0.00 71 1015.6
20260906072501 74 173 2.0 4.0 0.00 0.00 0.00 71 1015.5
20260906072200 74 173 2.0 4.0 0.00 0.00 0.00 71 1015.6
20260906071422 74 173 0.0 3.0 0.00 0.00 0.00 71 1015.6
20260906071117 75 173 0.0 3.0 0.00 0.00 0.00 70 1015.7
20260906070808 75 173 0.0 4.0 0.00 0.00 0.00 70 1015.7
20260906070049 75 173 0.0 4.0 0.00 0.00 0.00 69 1015.7
20260906065740 75 173 1.0 4.0 0.00 0.00 0.00 69 1015.7
20260906065440 75 173 1.0 4.0 0.00 0.00 0.00 69 1015.7
20260906065127 75 173 0.0 4.0 0.00 0.00 0.00 69 1015.6
20260906064829 75 173 0.0 4.0 0.00 0.00 0.00 69 1015.4
20260906064517 75 173 0.0 0.0 0.00 0.00 0.00 69 1015.2
20260906064213 75 173 1.0 6.0 0.00 0.00 0.00 69 1015.2
20260906063910 75 173 2.0 6.0 0.00 0.00 0.00 69 1015.2
20260906063610 75 173 3.0 6.0 0.00 0.00 0.00 70 1015.2
20260906063312 75 173 3.0 6.0 0.00 0.00 0.00 70 1015.2
20260906063014 75 173 3.0 6.0 0.00 0.00 0.00 70 1015.1
20260906062705 75 173 3.0 5.0 0.00 0.00 0.00 70 1015.2
20260906062404 75 173 3.0 5.0 0.00 0.00 0.00 70 1015.3
20260906062055 75 173 3.0 5.0 0.00 0.00 0.00 70 1015.3
20260906061749 75 173 3.0 5.0 0.00 0.00 0.00 69 1015.4
20260906061016 75 173 2.0 4.0 0.00 0.00 0.00 68 1015.3
20260906060706 75 173 2.0 4.0 0.00 0.00 0.00 68 1015.2
20260906060400 76 173 2.0 4.0 0.00 0.00 0.00 68 1015.3
20260906055801 76 173 3.0 4.0 0.00 0.00 0.00 68 1015.2
20260906055501 76 173 3.0 4.0 0.00 0.00 0.00 68 1015.3
20260906055150 76 173 2.0 4.0 0.00 0.00 0.00 67 1015.4
20260906054841 76 173 2.0 7.0 0.00 0.00 0.00 67 1015.4
20260906054543 76 173 3.0 7.0 0.00 0.00 0.00 67 1015.3
20260906054243 76 173 4.0 7.0 0.00 0.00 0.00 67 1015.3
20260906053939 76 173 5.0 7.0 0.00 0.00 0.00 68 1015.3
20260906053637 76 173 5.0 7.0 0.00 0.00 0.00 68 1015.4
20260906053326 76 173 5.0 7.0 0.00 0.00 0.00 68 1015.3
20260906053026 76 173 5.0 7.0 0.00 0.00 0.00 69 1015.3
20260906052715 75 173 4.0 6.0 0.00 0.00 0.00 70 1015.3
20260906052414 75 173 4.0 6.0 0.00 0.00 0.00 70 1015.1
20260906052112 75 173 4.0 6.0 0.00 0.00 0.00 70 1015.1
20260906051804 75 173 3.0 6.0 0.00 0.00 0.00 70 1015.2
20260906051507 75 173 3.0 5.0 0.00 0.00 0.00 70 1015.3
20260906051204 75 173 4.0 5.0 0.00 0.00 0.00 69 1015.3
20260906050907 76 173 4.0 5.0 0.00 0.00 0.00 69 1015.2
20260906050554 76 173 4.0 5.0 0.00 0.00 0.00 68 1015.2
20260906050247 76 173 4.0 5.0 0.00 0.00 0.00 68 1015.0
20260906045949 76 173 4.0 5.0 0.00 0.00 0.00 67 1014.9
20260906044358 78 173 0.0 1.0 0.00 0.00 0.00 64 1015.0
20260906044101 78 173 1.0 0.0 0.00 0.00 0.00 64 1014.9
20260906043336 78 173 3.0 5.0 0.00 0.00 0.00 64 1014.8
20260906043034 79 173 3.0 5.0 0.00 0.00 0.00 63 1015.0
20260906042733 79 173 3.0 5.0 0.00 0.00 0.00 63 1015.0
20260906042008 79 173 4.0 6.0 0.00 0.00 0.00 62 1015.0
20260906041654 79 173 4.0 6.0 0.00 0.00 0.00 62 1015.0
20260906041347 79 173 4.0 7.0 0.00 0.00 0.00 62 1015.0
20260906041033 80 173 5.0 7.0 0.00 0.00 0.00 61 1015.0
20260906040724 80 173 4.0 7.0 0.00 0.00 0.00 61 1015.1
20260906040411 80 173 4.0 7.0 0.00 0.00 0.00 61 1015.1
20260906035213 80 173 6.0 10.0 0.00 0.00 0.00 60 1015.2
20260906034915 80 173 7.0 10.0 0.00 0.00 0.00 60 1015.2
20260906034616 80 173 6.0 10.0 0.00 0.00 0.00 60 1015.1
20260906034305 80 173 6.0 9.0 0.00 0.00 0.00 60 1015.0
20260906034009 80 173 6.0 9.0 0.00 0.00 0.00 60 1015.1
20260906033708 80 173 6.0 9.0 0.00 0.00 0.00 60 1015.2
20260906033358 80 173 6.0 9.0 0.00 0.00 0.00 60 1015.3
20260906033053 80 174 5.0 9.0 0.00 0.00 0.00 60 1015.2
20260906032744 80 174 5.0 9.0 0.00 0.00 0.00 60 1015.2
20260906032433 80 174 6.0 9.0 0.00 0.00 0.00 60 1015.0
20260906032124 81 174 6.0 9.0 0.00 0.00 0.00 60 1015.1
20260906031826 81 174 6.0 9.0 0.00 0.00 0.00 59 1015.2
20260906031516 81 175 5.0 9.0 0.00 0.00 0.00 59 1015.2
20260906031206 81 175 4.0 8.0 0.00 0.00 0.00 59 1015.2
20260906030901 81 175 3.0 8.0 0.00 0.00 0.00 58 1015.2
20260906030552 81 175 3.0 8.0 0.00 0.00 0.00 58 1015.3
20260906030248 82 175 3.0 7.0 0.00 0.00 0.00 58 1015.2
20260906025939 82 175 4.0 7.0 0.00 0.00 0.00 58 1015.1
20260906025635 82 175 4.0 7.0 0.00 0.00 0.00 58 1014.8
20260906025328 82 175 3.0 7.0 0.00 0.00 0.00 58 1014.7
20260906025017 82 175 2.0 6.0 0.00 0.00 0.00 58 1014.7
20260906024704 82 175 2.0 6.0 0.00 0.00 0.00 58 1014.6
20260906024401 82 175 3.0 6.0 0.00 0.00 0.00 58 1014.6
20260906023626 82 175 3.0 4.0 0.00 0.00 0.00 57 1014.5
20260906023326 82 175 2.0 4.0 0.00 0.00 0.00 57 1014.6
20260906023014 82 175 2.0 6.0 0.00 0.00 0.00 57 1014.5
20260906022712 82 175 2.0 6.0 0.00 0.00 0.00 56 1014.5
20260906022412 82 175 3.0 6.0 0.00 0.00 0.00 56 1014.4
20260906022113 83 175 3.0 6.0 0.00 0.00 0.00 56 1014.3
20260906021345 83 175 4.0 6.0 0.00 0.00 0.00 56 1014.3
20260906021044 83 175 4.0 5.0 0.00 0.00 0.00 56 1014.4
20260906020741 83 175 3.0 5.0 0.00 0.00 0.00 55 1014.2
20260906020441 83 175 4.0 5.0 0.00 0.00 0.00 55 1014.3
20260906020141 84 175 4.0 5.0 0.00 0.00 0.00 55 1014.1
20260906015843 84 175 4.0 5.0 0.00 0.00 0.00 55 1014.2
20260906015534 84 175 4.0 8.0 0.00 0.00 0.00 54 1014.2
20260906015230 84 175 4.0 8.0 0.00 0.00 0.00 54 1014.1
20260906014932 84 175 4.0 8.0 0.00 0.00 0.00 54 1014.0
20260906014636 84 175 5.0 8.0 0.00 0.00 0.00 54 1014.1
20260906014325 84 175 5.0 8.0 0.00 0.00 0.00 53 1014.0
20260906014023 85 175 5.0 8.0 0.00 0.00 0.00 53 1014.0
20260906013253 85 175 5.0 8.0 0.00 0.00 0.00 52 1013.9
20260906012952 85 175 5.0 8.0 0.00 0.00 0.00 52 1013.9
20260906012644 85 175 5.0 8.0 0.00 0.00 0.00 52 1013.9
20260906012336 86 175 5.0 7.0 0.00 0.00 0.00 51 1013.8
20260906011623 86 175 5.0 9.0 0.00 0.00 0.00 51 1013.7
20260906011321 86 175 5.0 9.0 0.00 0.00 0.00 50 1013.7
20260906011014 87 175 5.0 9.0 0.00 0.00 0.00 50 1013.7
20260906010709 87 175 5.0 9.0 0.00 0.00 0.00 50 1013.7
20260906005953 87 177 6.0 8.0 0.00 0.00 0.00 49 1013.7
20260906005645 87 177 6.0 15.0 0.00 0.00 0.00 49 1013.8
20260906005335 88 177 7.0 15.0 0.00 0.00 0.00 49 1013.7
20260906005034 88 177 7.0 15.0 0.00 0.00 0.00 48 1013.7
20260906004722 88 178 8.0 15.0 0.00 0.00 0.00 48 1013.7
20260906004419 88 184 8.0 15.0 0.00 0.00 0.00 48 1013.7
20260906004109 88 176 8.0 15.0 0.00 0.00 0.00 48 1013.6
20260906003808 88 173 8.0 14.0 0.00 0.00 0.00 48 1013.6
20260906003504 88 174 8.0 14.0 0.00 0.00 0.00 48 1013.6
20260906003151 88 176 8.0 19.0 0.00 0.00 0.00 48 1013.5
20260906002843 88 177 9.0 19.0 0.00 0.00 0.00 48 1013.5
20260906002540 89 175 9.0 19.0 0.00 0.00 0.00 47 1013.5
20260906002226 89 179 10.0 19.0 0.00 0.00 0.00 48 1013.6
20260906001924 89 172 11.0 19.0 0.00 0.00 0.00 48 1013.6
20260906001624 89 187 11.0 19.0 0.00 0.00 0.00 47 1013.6
20260906001318 89 176 11.0 18.0 0.00 0.00 0.00 47 1013.6
20260906001009 89 182 12.0 20.0 0.00 0.00 0.00 48 1013.7
20260906000704 90 178 12.0 20.0 0.00 0.00 0.00 47 1013.7
20260906000410 90 180 12.0 20.0 0.00 0.00 0.00 47 1013.7
20260906000109 90 190 13.0 21.0 0.00 0.00 0.00 47 1013.7
20260905235804 90 186 12.0 21.0 0.00 0.00 0.00 46 1013.6
20260905235459 90 184 12.0 21.0 0.00 0.00 0.00 46 1013.7
20260905235202 90 193 12.0 22.0 0.00 0.00 0.00 46 1013.6
20260905234906 90 182 12.0 22.0 0.00 0.00 0.00 45 1013.7
20260905234558 91 177 13.0 22.0 0.00 0.00 0.00 44 1013.7
20260905234246 91 180 14.0 22.0 0.00 0.00 0.00 44 1013.6
20260905233942 92 184 13.0 22.0 0.00 0.00 0.00 43 1013.5
20260905233645 93 181 12.0 22.0 0.00 0.00 0.00 43 1013.6
20260905233338 93 191 10.0 22.0 0.00 0.00 0.00 42 1013.4
20260905233029 93 172 10.0 20.0 0.00 0.00 0.00 42 1013.5
20260905232721 93 177 11.0 24.0 0.00 0.00 0.00 42 1013.4
20260905231953 94 165 13.0 24.0 0.00 0.00 0.00 41 1013.5
20260905231648 94 182 14.0 24.0 0.00 0.00 0.00 42 1013.5
20260905230510 94 171 13.0 23.0 0.00 0.00 0.00 42 1013.3
20260905230213 94 175 14.0 23.0 0.00 0.00 0.00 41 1013.3
20260905225900 94 181 13.0 23.0 0.00 0.00 0.00 41 1013.4
20260905225553 94 170 13.0 23.0 0.00 0.00 0.00 40 1013.2
20260905224826 94 182 11.0 22.0 0.00 0.00 0.00 41 1013.3
20260905224514 94 185 10.0 22.0 0.00 0.00 0.00 42 1013.0
20260905224205 94 179 10.0 20.0 0.00 0.00 0.00 43 1013.0
20260905223430 94 175 12.0 22.0 0.00 0.00 0.00 43 1013.0
20260905223129 94 178 12.0 22.0 0.00 0.00 0.00 42 1013.0
20260905222816 93 181 11.0 22.0 0.00 0.00 0.00 42 1012.9
20260905222512 93 171 12.0 22.0 0.00 0.00 0.00 43 1013.0
20260905222206 93 170 11.0 22.0 0.00 0.00 0.00 43 1013.0
20260905221909 93 184 11.0 22.0 0.00 0.00 0.00 43 1013.0
20260905221558 94 192 10.0 21.0 0.00 0.00 0.00 43 1013.0
20260905220848 94 172 8.0 18.0 0.00 0.00 0.00 43 1012.9
20260905220552 94 162 9.0 20.0 0.00 0.00 0.00 42 1012.8
20260905220254 94 168 10.0 20.0 0.00 0.00 0.00 43 1012.9
20260905215946 94 164 10.0 20.0 0.00 0.00 0.00 43 1012.9
20260905215646 94 173 11.0 27.0 0.00 0.00 0.00 43 1013.0
20260905215342 94 168 12.0 27.0 0.00 0.00 0.00 43 1013.1
20260905214602 94 188 12.0 27.0 0.00 0.00 0.00 42 1013.0
20260905214249 94 173 11.0 27.0 0.00 0.00 0.00 43 1013.1
20260905213949 94 170 12.0 27.0 0.00 0.00 0.00 43 1013.1
20260905213650 94 178 11.0 24.0 0.00 0.00 0.00 44 1013.0
20260905213352 94 160 11.0 24.0 0.00 0.00 0.00 43 1013.0
20260905213044 94 182 9.0 24.0 0.00 0.00 0.00 43 1013.1
20260905212732 94 180 7.0 17.0 0.00 0.00 0.00 44 1013.1
20260905212423 94 162 8.0 17.0 0.00 0.00 0.00 44 1013.1
20260905211253 93 164 9.0 17.0 0.00 0.00 0.00 45 1013.3
20260905210957 93 177 8.0 17.0 0.00 0.00 0.00 46 1013.3
20260905210653 93 182 8.0 17.0 0.00 0.00 0.00 45 1013.4
20260905210339 93 171 7.0 19.0 0.00 0.00 0.00 45 1013.5
20260905210032 93 165 9.0 19.0 0.00 0.00 0.00 45 1013.5
20260905205311 93 186 9.0 21.0 0.00 0.00 0.00 46 1013.7
20260905204556 94 171 7.0 21.0 0.00 0.00 0.00 47 1013.9
20260905204255 93 179 9.0 21.0 0.00 0.00 0.00 48 1014.0
20260905203941 93 176 10.0 21.0 0.00 0.00 0.00 48 1014.0
20260905203206 93 182 11.0 21.0 0.00 0.00 0.00 46 1014.2
20260905202901 93 186 11.0 21.0 0.00 0.00 0.00 45 1014.2
20260905202600 94 171 11.0 21.0 0.00 0.00 0.00 45 1014.2
20260905201428 93 191 10.0 21.0 0.00 0.00 0.00 46 1014.3